Silver Bay, MN

7:54 PM CDT on March 28, 2017 (GMT -0500)
Silver Bay Municipal

Weather History for KBFW - August, 2013

Change the Weather History Date:

Sunday, August 18, 2013

  Actual Average Record
Temperature  
Mean Temperature 66 °F -  
Max Temperature 78 °F 71 °F 113 °F (1997)
Min Temperature 53 °F 48 °F 33 °F (2007)
Growing Degree Days 16 (Base 50)    
Moisture  
Dew Point 50 °F    
Average Humidity 58    
Maximum Humidity 88    
Minimum Humidity 32    
Precipitation  
Precipitation 0.00 in - - ()
Sea Level Pressure  
Sea Level Pressure 30.03 in    
Wind  
Wind Speed 3 mph (SSW)    
Max Wind Speed 21 mph    
Max Gust Speed 30 mph    
Visibility 10 miles    
Events      
Averages and records for this station are not official NWS values.
T = Trace of Precipitation, MM = Missing Value Source: NWS Daily Summary

Daily Weather History Graph

Daily Weather History Graph

Search for Another Location

Airport or City:

Trip Planner

Search our weather history database for the weather conditions in past years. The results will help you decide how hot, cold, wet, or windy it might be!

Date:

Astronomy

Aug. 18, 2013 Rise Set
Actual Time 6:06 AM CDT 8:11 PM CDT
Civil Twilight 5:33 AM CDT 8:44 PM CDT
Nautical Twilight 4:52 AM CDT 9:25 PM CDT
Astronomical Twilight 4:06 AM CDT 10:10 PM CDT
Moon 6:21 PM CDT (8/18) 3:10 AM CDT (8/18)
Length of Visible Light 15h 10m
Length of Day
14h 04m
Waxing Gibbous, 92% of the Moon is Illuminated
Aug 18
Waxing Gibbous
Aug 20
Full
Aug 28
Last Quarter
Sep 5
New
Sep 12
First Quarter

Hourly Weather History & Observations

Time (CDT) Temp. Dew Point Humidity Pressure Visibility Wind Dir Wind Speed Gust Speed Precip Events Conditions
12:13 AM 55.4 °F 50.0 °F 82% 30.07 in 10.0 mi Calm Calm - N/A   Clear
12:33 AM 55.4 °F 50.0 °F 82% 30.07 in 10.0 mi Calm Calm - N/A   Clear
12:41 AM 55.4 °F 51.8 °F 88% 30.07 in 10.0 mi Calm Calm - N/A   Clear
1:13 AM 55.4 °F 50.0 °F 82% 30.07 in 10.0 mi Calm Calm - N/A   Clear
1:35 AM 55.4 °F 50.0 °F 82% 30.07 in 10.0 mi Calm Calm - N/A   Clear
1:53 AM 55.4 °F 50.0 °F 82% 30.07 in 10.0 mi Calm Calm - N/A   Clear
2:13 AM 59.0 °F 50.0 °F 72% 30.07 in 10.0 mi Calm Calm - N/A   Clear
2:34 AM 62.6 °F 50.0 °F 63% 30.07 in 10.0 mi Calm Calm - N/A   Clear
2:54 AM 64.4 °F 48.2 °F 56% 30.07 in 10.0 mi Calm Calm - N/A   Clear
3:14 AM 62.6 °F 48.2 °F 59% 30.07 in 10.0 mi Calm Calm - N/A   Clear
3:40 AM 62.6 °F 48.2 °F 59% 30.07 in 10.0 mi Calm Calm - N/A   Clear
3:54 AM 62.6 °F 48.2 °F 59% 30.07 in 10.0 mi Calm Calm - N/A   Clear
4:13 AM 60.8 °F 48.2 °F 63% 30.07 in 10.0 mi Calm Calm - N/A   Clear
4:36 AM 60.8 °F 48.2 °F 63% 30.07 in 10.0 mi Calm Calm - N/A   Clear
4:53 AM 59.0 °F 48.2 °F 67% 30.07 in 10.0 mi Calm Calm - N/A   Clear
5:14 AM 57.2 °F 48.2 °F 72% 30.07 in 10.0 mi Calm Calm - N/A   Clear
5:33 AM 55.4 °F 50.0 °F 82% 30.07 in 10.0 mi Calm Calm - N/A   Clear
5:53 AM 55.4 °F 50.0 °F 82% 30.08 in 10.0 mi Calm Calm - N/A   Clear
6:13 AM 53.6 °F 50.0 °F 88% 30.08 in 10.0 mi Calm Calm - N/A   Clear
6:34 AM 53.6 °F 50.0 °F 88% 30.09 in 10.0 mi Calm Calm - N/A   Clear
6:53 AM 55.4 °F 50.0 °F 82% 30.09 in 10.0 mi Calm Calm - N/A   Clear
7:14 AM 55.4 °F 50.0 °F 82% 30.09 in 10.0 mi Calm Calm - N/A   Clear
7:34 AM 59.0 °F 51.8 °F 77% 30.09 in 10.0 mi Calm Calm - N/A   Clear
7:53 AM 60.8 °F 51.8 °F 72% 30.08 in 10.0 mi Calm Calm - N/A   Clear
8:13 AM 60.8 °F 51.8 °F 72% 30.08 in 10.0 mi Calm Calm - N/A   Clear
8:35 AM 62.6 °F 51.8 °F 68% 30.08 in 10.0 mi Calm Calm - N/A   Clear
8:56 AM 64.4 °F 53.6 °F 68% 30.08 in 10.0 mi Calm Calm - N/A   Clear
9:13 AM 66.2 °F 53.6 °F 64% 30.07 in 10.0 mi Calm Calm - N/A   Clear
9:33 AM 68.0 °F 53.6 °F 60% 30.07 in 10.0 mi Calm Calm - N/A   Clear
9:53 AM 69.8 °F 53.6 °F 56% 30.07 in 10.0 mi Calm Calm - N/A   Clear
10:13 AM 71.6 °F 53.6 °F 53% 30.07 in 10.0 mi SW 4.6 mph - N/A   Clear
10:33 AM 71.6 °F 51.8 °F 50% 30.06 in 10.0 mi SW 8.1 mph - N/A   Clear
10:53 AM 73.4 °F 51.8 °F 47% 30.06 in 10.0 mi SSW 11.5 mph - N/A   Clear
11:13 AM 73.4 °F 51.8 °F 47% 30.06 in 10.0 mi SSW 9.2 mph - N/A   Clear
11:33 AM 73.4 °F 51.8 °F 47% 30.05 in 10.0 mi South 5.8 mph 16.1 mph N/A   Clear
11:53 AM 73.4 °F 51.8 °F 47% 30.04 in 10.0 mi South 6.9 mph - N/A   Clear
12:13 PM 73.4 °F 50.0 °F 44% 30.03 in 10.0 mi SSW 17.3 mph 23.0 mph N/A   Clear
12:33 PM 73.4 °F 48.2 °F 41% 30.03 in 10.0 mi SSW 12.7 mph 21.9 mph N/A   Clear
12:53 PM 73.4 °F 48.2 °F 41% 30.03 in 10.0 mi SSW 20.7 mph 28.8 mph N/A   Clear
1:13 PM 75.2 °F 48.2 °F 38% 30.03 in 10.0 mi SSW 20.7 mph 26.5 mph N/A   Clear
1:33 PM 75.2 °F 48.2 °F 38% 30.02 in 10.0 mi SSW 19.6 mph 24.2 mph N/A   Clear
1:53 PM 75.2 °F 46.4 °F 36% 30.02 in 10.0 mi SSW 19.6 mph 29.9 mph N/A   Clear
2:13 PM 75.2 °F 46.4 °F 36% 30.01 in 10.0 mi SSW 16.1 mph 27.6 mph N/A   Clear
2:33 PM 75.2 °F 46.4 °F 36% 30.01 in 10.0 mi SSW 19.6 mph 26.5 mph N/A   Clear
2:53 PM 77.0 °F 46.4 °F 34% 30.01 in 10.0 mi SW 8.1 mph 24.2 mph N/A   Clear
3:13 PM 77.0 °F 46.4 °F 34% 30.01 in 10.0 mi SW 11.5 mph 21.9 mph N/A   Clear
3:33 PM 77.0 °F 46.4 °F 34% 30.00 in 10.0 mi SSW 11.5 mph 16.1 mph N/A   Clear
3:53 PM 77.0 °F 46.4 °F 34% 30.00 in 10.0 mi SW 8.1 mph 18.4 mph N/A   Clear
4:13 PM 77.0 °F 46.4 °F 34% 29.99 in 10.0 mi SSW 12.7 mph 19.6 mph N/A   Clear
4:33 PM 77.0 °F 46.4 °F 34% 29.99 in 10.0 mi SW 10.4 mph 16.1 mph N/A   Clear
4:53 PM 78.8 °F 48.2 °F 34% 29.99 in 10.0 mi SSW 5.8 mph - N/A   Clear
5:13 PM 78.8 °F 46.4 °F 32% 29.99 in 10.0 mi SW 9.2 mph - N/A   Clear
5:33 PM 78.8 °F 46.4 °F 32% 29.99 in 10.0 mi WSW 8.1 mph - N/A   Clear
5:53 PM 77.0 °F 46.4 °F 34% 29.97 in 10.0 mi SW 4.6 mph 17.3 mph N/A   Clear
6:13 PM 75.2 °F 46.4 °F 36% 29.97 in 10.0 mi SSW 8.1 mph 16.1 mph N/A   Clear
6:33 PM 75.2 °F 46.4 °F 36% 29.96 in 10.0 mi SW 10.4 mph - N/A   Clear
6:53 PM 73.4 °F 48.2 °F 41% 29.96 in 10.0 mi Calm Calm - N/A   Clear
7:13 PM 73.4 °F 46.4 °F 38% 29.95 in 10.0 mi SSW 4.6 mph - N/A   Clear
7:33 PM 71.6 °F 46.4 °F 41% 29.94 in 10.0 mi Calm Calm - N/A   Clear
7:53 PM 69.8 °F 48.2 °F 46% 29.94 in 10.0 mi Calm Calm - N/A   Clear
8:13 PM 66.2 °F 48.2 °F 52% 29.95 in 10.0 mi Calm Calm - N/A   Clear
8:33 PM 64.4 °F 50.0 °F 59% 29.95 in 10.0 mi Calm Calm - N/A   Clear
8:53 PM 62.6 °F 51.8 °F 68% 29.96 in 10.0 mi Calm Calm - N/A   Clear
9:13 PM 60.8 °F 51.8 °F 72% 29.96 in 10.0 mi Calm Calm - N/A   Clear
9:33 PM 60.8 °F 51.8 °F 72% 29.96 in 10.0 mi Calm Calm - N/A   Clear
9:53 PM 60.8 °F 51.8 °F 72% 29.97 in 10.0 mi Calm Calm - N/A   Mostly Cloudy
10:13 PM 60.8 °F 51.8 °F 72% 29.95 in 10.0 mi Calm Calm - N/A   Scattered Clouds
10:33 PM 60.8 °F 51.8 °F 72% 29.95 in 10.0 mi Calm Calm - N/A   Clear
10:53 PM 59.0 °F 51.8 °F 77% 29.96 in 10.0 mi Calm Calm - N/A   Clear
11:13 PM 59.0 °F 51.8 °F 77% 29.96 in 10.0 mi Calm Calm - N/A   Scattered Clouds
11:33 PM 59.0 °F 51.8 °F 77% 29.96 in 10.0 mi Calm Calm - N/A   Scattered Clouds
11:53 PM 59.0 °F 51.8 °F 77% 29.96 in 10.0 mi Calm Calm - N/A   Scattered Clouds